Weather History for Burns, OR

Change the Weather History Date:

Sunday, February 23, 2014

  Actual Average Record
Temperature  
Mean Temperature 38 °F 31 °F  
Max Temperature 53 °F 42 °F 66 °F (1995)
Min Temperature 23 °F 20 °F 9 °F (1969)
Degree Days  
Heating Degree Days 27 34  
Month to date heating degree days 761 849  
Since 1 July heating degree days 5171 5362  
Cooling Degree Days 0 0  
Month to date cooling degree days 0 0  
Year to date cooling degree days 0 0  
Moisture  
Dew Point 28 °F    
Average Humidity 68    
Maximum Humidity 100    
Minimum Humidity 35    
Precipitation  
Precipitation 0.00 in 0.04 in 0.30 in (2010)
Month to date precipitation 1.57 0.83  
Year to date precipitation 2.07 2.02  
Sea Level Pressure  
Sea Level Pressure 30.02 in    
Wind  
Wind Speed 5 mph (WSW)    
Max Wind Speed 17 mph    
Max Gust Speed 23 mph    
Visibility 10 miles    
Events      
T = Trace of Precipitation, MM = Missing Value Source: NWS Daily Summary

Daily Weather History Graph

Daily Weather History Graph

Search for Another Location

Airport:

Trip Planner

Search our weather history database for the weather conditions in past years. The results will help you decide how hot, cold, wet, or windy it might be!

Date:

Astronomy

Feb. 23, 2014 Rise Set
Actual Time 6:41 AM PST 5:36 PM PST
Civil Twilight 6:12 AM PST 6:05 PM PST
Nautical Twilight 5:39 AM PST 6:39 PM PST
Astronomical Twilight 5:06 AM PST 7:12 PM PST
Moon 1:50 AM PST (2/23) 11:38 AM PST (2/23)
Length of Visible Light 11h 53m
Length of Day
10h 55m
Last Quarter, 38% of the Moon is Illuminated
Feb 23
Last Quarter
Mar 1
New
Mar 8
First Quarter
Mar 16
Full
Mar 23
Last Quarter

Hourly Weather History & Observations

Time (PST) Temp. Windchill Dew Point Humidity Pressure Visibility Wind Dir Wind Speed Gust Speed Precip Events Conditions
12:53 AM 32.0 °F 28.7 °F 26.1 °F 79% 30.02 in 10.0 mi SSW 3.5 mph - N/A   Clear
1:53 AM 28.0 °F - 25.0 °F 88% 30.03 in 10.0 mi Calm Calm - N/A   Clear
2:53 AM 26.1 °F - 24.1 °F 92% 30.03 in 10.0 mi Calm Calm - N/A   Clear
3:53 AM 25.0 °F 19.3 °F 24.1 °F 96% 30.04 in 10.0 mi East 4.6 mph - N/A   Clear
4:53 AM 24.1 °F 16.0 °F 23.0 °F 96% 30.05 in 10.0 mi NE 6.9 mph - N/A   Clear
5:53 AM 23.0 °F 15.8 °F 21.0 °F 92% 30.08 in 10.0 mi North 5.8 mph - N/A   Clear
6:53 AM 23.0 °F 17.0 °F 21.0 °F 92% 30.08 in 10.0 mi NNW 4.6 mph - N/A   Clear
7:53 AM 30.0 °F - 27.0 °F 88% 30.08 in 10.0 mi Calm Calm - N/A   Clear
8:53 AM 34.0 °F - 28.9 °F 82% 30.07 in 10.0 mi Calm Calm - N/A   Clear
9:53 AM 37.9 °F - 28.9 °F 70% 30.06 in 10.0 mi Calm Calm - N/A   Clear
10:53 AM 41.0 °F 38.0 °F 28.9 °F 62% 30.05 in 10.0 mi South 4.6 mph - N/A   Clear
11:53 AM 45.0 °F 42.6 °F 28.9 °F 53% 30.03 in 10.0 mi Variable 4.6 mph - N/A   Clear
12:53 PM 48.9 °F - 27.0 °F 43% 29.99 in 10.0 mi SSW 8.1 mph - N/A   Clear
1:53 PM 50.0 °F - 28.0 °F 43% 29.98 in 10.0 mi SSW 9.2 mph - N/A   Clear
2:53 PM 52.0 °F - 25.0 °F 35% 29.96 in 10.0 mi SW 12.7 mph 20.7 mph N/A   Clear
3:53 PM 52.0 °F - 27.0 °F 38% 29.95 in 10.0 mi WSW 4.6 mph - N/A   Clear
4:53 PM 48.9 °F - 32.0 °F 52% 29.96 in 10.0 mi WNW 3.5 mph - N/A   Mostly Cloudy
5:53 PM 45.0 °F 42.6 °F 32.0 °F 60% 29.99 in 10.0 mi SSW 4.6 mph - N/A   Overcast
6:53 PM 46.9 °F - 28.9 °F 50% 30.00 in 10.0 mi SW 10.4 mph - N/A   Overcast
7:53 PM 45.0 °F 41.2 °F 30.0 °F 56% 29.99 in 10.0 mi West 6.9 mph - N/A   Overcast
8:53 PM 44.1 °F 40.1 °F 30.9 °F 60% 30.00 in 10.0 mi West 6.9 mph - N/A   Overcast
9:53 PM 46.0 °F 40.6 °F 33.1 °F 61% 30.00 in 10.0 mi WSW 11.5 mph - N/A   Overcast
10:53 PM 39.9 °F 33.4 °F 32.0 °F 73% 30.01 in 10.0 mi WSW 10.4 mph - N/A   Scattered Clouds
11:53 PM 37.9 °F 33.5 °F 30.0 °F 73% 30.02 in 10.0 mi SW 5.8 mph - N/A   Clear